DW7572 Weather Reports


time (UTC)temp
F
wind
direction
speed
knots
gust
knots
rain 1hr
in
rain 24hr
in
rain mn
in
humidity
%
barometer
mb
20260506200017 47 315 9.6 20.0 0.00 0.00 0.00 48 1017.3
20260506193017 46 315 10.4 17.4 0.00 0.00 0.00 50 1017.6
20260506190019 46 315 11.3 20.0 0.00 0.00 0.00 51 1017.6
20260506183058 46 315 11.3 20.0 0.00 0.00 0.00 51 1017.8
20260506180018 44 315 8.7 16.5 0.00 0.00 0.00 52 1017.9
20260506173018 44 315 13.0 19.1 0.00 0.00 0.00 52 1017.9
20260506170018 44 315 12.2 19.1 0.00 0.00 0.00 54 1018.1
20260506163017 43 315 11.3 20.9 0.00 0.00 0.00 56 1018.1
20260506160058 42 315 8.7 16.5 0.00 0.00 0.00 60 1018.0
20260506153017 41 315 6.1 11.3 0.00 0.00 0.00 62 1017.9
20260506150017 40 338 6.1 10.4 0.00 0.00 0.00 62 1018.0
20260506143017 40 338 7.0 11.3 0.00 0.00 0.00 63 1017.8
20260506140018 40 315 8.7 12.2 0.00 0.00 0.00 65 1017.7
20260506133017 39 315 8.7 12.2 0.00 0.00 0.00 68 1017.7
20260506130016 38 293 6.1 9.6 0.00 0.00 0.00 70 1017.2
20260506123057 37 293 4.3 9.6 0.00 0.00 0.00 71 1017.0
20260506120037 36 293 1.7 6.1 0.00 0.00 0.00 75 1016.6
20260506113017 34 293 0.9 2.6 0.00 0.00 0.00 75 1016.1
20260506110016 33 293 0.9 2.6 0.00 0.00 0.00 74 1015.5
20260506103057 34 293 0.9 3.5 0.00 0.00 0.00 73 1015.6
20260506100016 34 293 1.7 4.3 0.00 0.00 0.00 72 1015.9
20260506093058 35 293 3.5 4.3 0.00 0.00 0.00 71 1015.4
20260506090016 35 293 3.5 4.3 0.00 0.00 0.00 71 1015.4
20260506083016 35 293 3.5 4.3 0.00 0.00 0.00 70 1015.4
20260506073016 36 315 2.6 4.3 0.00 0.00 0.00 67 1015.2
20260506043017 38 315 4.3 7.0 0.00 0.00 0.00 61 1014.7
20260506040017 40 338 6.1 8.7 0.00 0.00 0.00 58 1014.5
20260506033017 41 338 6.1 8.7 0.00 0.00 0.00 57 1014.2
20260506030037 42 338 7.0 13.0 0.00 0.00 0.00 54 1014.3
20260506023016 44 338 9.6 13.9 0.00 0.00 0.00 51 1014.0
20260506020016 45 338 12.2 17.4 0.00 0.00 0.00 48 1013.3
20260506013037 47 315 13.9 19.1 0.00 0.00 0.00 45 1012.8
20260506010016 48 338 15.6 21.7 0.00 0.00 0.00 44 1012.5
20260506003017 49 338 14.8 20.0 0.00 0.00 0.00 42 1012.2
20260506000015 50 315 14.8 22.6 0.00 0.00 0.00 41 1012.1
20260505233016 51 315 15.6 22.6 0.00 0.00 0.00 38 1012.0
20260505230016 51 315 15.6 23.5 0.00 0.00 0.00 37 1011.6
20260505223015 52 315 15.6 23.5 0.00 0.00 0.00 37 1011.6
20260505220016 52 315 14.8 23.5 0.00 0.00 0.00 37 1011.7
20260505213017 52 315 14.8 24.3 0.00 0.00 0.00 37 1011.7
20260505210018 52 315 11.3 20.9 0.00 0.00 0.00 37 1011.9
20260505203018 51 315 11.3 18.2 0.00 0.00 0.00 38 1012.1